Weather History for KAPF - April, 2012

Change the Weather History Date:

Sunday, April 22, 2012

  Actual Average Record
Temperature  
Mean Temperature 74 °F 74 °F  
Max Temperature 80 °F 84 °F 92 °F (1970)
Min Temperature 68 °F 64 °F 54 °F (1962)
Degree Days  
Heating Degree Days 0 0  
Month to date heating degree days 0 0  
Since 1 July heating degree days 121 256  
Cooling Degree Days 9 9  
Month to date cooling degree days 215 172  
Year to date cooling degree days 757 539  
Growing Degree Days 24 (Base 50)    
Moisture  
Dew Point 65 °F    
Average Humidity 76    
Maximum Humidity 93    
Minimum Humidity 58    
Precipitation  
Precipitation 0.61 in 0.08 in 0.74 in (1959)
Month to date precipitation 1.66 1.84  
Year to date precipitation 6.04 8.17  
Snow  
Snow 0.00 in - - ()
Month to date snowfall 0.0  
Since 1 July snowfall 0.0  
Snow Depth 0.00 in    
Sea Level Pressure  
Sea Level Pressure 29.64 in    
Wind  
Wind Speed 17 mph (West)    
Max Wind Speed 29 mph    
Max Gust Speed 40 mph    
Visibility 8 miles    
Events Fog , Rain , Thunderstorm    
T = Trace of Precipitation, MM = Missing Value Source: NWS Daily Summary

Daily Weather History Graph

Daily Weather History Graph

Search for Another Location

Airport or City:

Trip Planner

Search our weather history database for the weather conditions in past years. The results will help you decide how hot, cold, wet, or windy it might be!

Date:

Astronomy

Apr. 22, 2012 Rise Set
Actual Time 6:56 AM EDT 7:54 PM EDT
Civil Twilight 6:32 AM EDT 8:18 PM EDT
Nautical Twilight 6:04 AM EDT 8:46 PM EDT
Astronomical Twilight 5:35 AM EDT 9:15 PM EDT
Moon 7:36 AM EDT (4/22) 9:18 PM EDT (4/22)
Length of Visible Light 13h 45m
Length of Day
12h 57m
New Moon, 2% of the Moon is Illuminated
Apr 22
New Moon
Apr 29
First Quarter
May 5
Full
May 12
Last Quarter
May 20
New

Hourly Weather History & Observations

Time (EDT) Temp. Heat Index Dew Point Humidity Pressure Visibility Wind Dir Wind Speed Gust Speed Precip Events Conditions
12:50 AM 71.6 °F - 71.6 °F 100% 29.63 in 10.0 mi SSE 8.1 mph - 0.00 in   Mostly Cloudy
12:53 AM 73.0 °F - 71.1 °F 93% 29.63 in 10.0 mi SSE 9.2 mph - 0.00 in   Mostly Cloudy
1:23 AM 75.2 °F - 71.6 °F 89% 29.62 in 10.0 mi South 16.1 mph 20.7 mph N/A   Mostly Cloudy
1:53 AM 75.9 °F - 71.1 °F 85% 29.60 in 10.0 mi SSW 15.0 mph 32.2 mph 0.04 in   Overcast
1:59 AM 75.2 °F - 71.6 °F 89% 29.60 in 10.0 mi SSW 13.8 mph 24.2 mph N/A Thunderstorm Overcast
2:10 AM 75.2 °F - 69.8 °F 83% 29.61 in 6.0 mi SW 24.2 mph 35.7 mph 0.02 in Rain Light Rain
2:18 AM 69.8 °F - 69.8 °F 100% 29.62 in 2.5 mi West 20.7 mph 38.0 mph 0.06 in Rain , Thunderstorm Rain
2:23 AM 68.0 °F - 68.0 °F 100% 29.62 in 1.2 mi West 21.9 mph 32.2 mph 0.23 in Rain , Thunderstorm Heavy Thunderstorms and Rain
2:27 AM 68.0 °F - 68.0 °F 100% 29.61 in 0.5 mi WSW 27.6 mph 40.3 mph 0.45 in Fog , Rain , Thunderstorm Heavy Thunderstorms and Rain
2:35 AM 69.8 °F - - N/A% 29.59 in 1.0 mi WSW 15.0 mph 35.7 mph 0.52 in Rain , Thunderstorm Heavy Rain
2:39 AM 69.8 °F - - N/A% 29.60 in 3.0 mi WSW 15.0 mph 24.2 mph 0.52 in Rain , Thunderstorm Light Thunderstorms and Rain
2:50 AM 71.6 °F - - N/A% 29.59 in 4.0 mi WSW 10.4 mph - 0.56 in Rain , Thunderstorm Thunderstorms and Rain
2:53 AM 70.0 °F - - N/A% 29.60 in 3.0 mi West 10.4 mph - 0.57 in Rain , Thunderstorm Heavy Thunderstorms and Rain
2:58 AM 69.8 °F - - N/A% 29.60 in 3.0 mi West 5.8 mph - 0.00 in Rain Light Rain
3:53 AM 73.9 °F - - N/A% 29.59 in 10.0 mi West 19.6 mph 25.3 mph 0.00 in   Partly Cloudy
4:53 AM 75.0 °F - - N/A% 29.58 in 10.0 mi West 17.3 mph 27.6 mph N/A   Mostly Cloudy
5:53 AM 73.9 °F - 62.1 °F 66% 29.58 in 10.0 mi West 13.8 mph 23.0 mph 0.00 in   Scattered Clouds
6:53 AM 71.1 °F - 64.0 °F 78% 29.60 in 10.0 mi WNW 9.2 mph - N/A   Mostly Cloudy
7:53 AM 75.0 °F - 62.1 °F 64% 29.60 in 10.0 mi WSW 18.4 mph 26.5 mph N/A   Scattered Clouds
8:53 AM 71.1 °F - 64.0 °F 78% 29.61 in 6.0 mi SW 15.0 mph 25.3 mph 0.00 in Rain Light Rain
9:53 AM 75.0 °F - 64.0 °F 69% 29.63 in 10.0 mi WSW 15.0 mph 23.0 mph 0.00 in   Mostly Cloudy
10:53 AM 75.9 °F - 66.9 °F 74% 29.64 in 10.0 mi West 16.1 mph - 0.00 in   Partly Cloudy
11:53 AM 79.0 °F - 64.9 °F 62% 29.65 in 10.0 mi West 21.9 mph 29.9 mph N/A   Scattered Clouds
12:53 PM 78.1 °F - 66.0 °F 66% 29.65 in 10.0 mi West 18.4 mph 25.3 mph N/A   Mostly Cloudy
1:53 PM 80.1 °F 81.7 °F 64.0 °F 58% 29.65 in 10.0 mi WNW 20.7 mph 26.5 mph N/A   Scattered Clouds
2:53 PM 79.0 °F - 64.0 °F 60% 29.64 in 10.0 mi WNW 18.4 mph 25.3 mph N/A   Partly Cloudy
3:53 PM 79.0 °F - 64.0 °F 60% 29.65 in 10.0 mi WNW 16.1 mph 29.9 mph N/A   Scattered Clouds
4:53 PM 77.0 °F - 64.9 °F 66% 29.64 in 10.0 mi WNW 15.0 mph 27.6 mph N/A   Mostly Cloudy
5:53 PM 75.9 °F - 64.9 °F 69% 29.66 in 10.0 mi WNW 19.6 mph 28.8 mph N/A   Partly Cloudy
6:53 PM 75.0 °F - 64.0 °F 69% 29.69 in 10.0 mi West 20.7 mph 31.1 mph N/A   Mostly Cloudy
7:53 PM 73.9 °F - 63.0 °F 68% 29.71 in 10.0 mi WNW 20.7 mph 27.6 mph N/A   Scattered Clouds
8:18 PM 73.4 °F - 64.4 °F 73% 29.73 in 10.0 mi WNW 15.0 mph 26.5 mph N/A   Mostly Cloudy
8:39 PM 73.4 °F - 62.6 °F 69% 29.74 in 10.0 mi WNW 16.1 mph 26.5 mph N/A   Overcast
8:53 PM 73.9 °F - 62.1 °F 66% 29.74 in 10.0 mi WNW 15.0 mph 27.6 mph N/A   Mostly Cloudy
9:53 PM 73.0 °F - 62.1 °F 68% 29.76 in 10.0 mi WNW 19.6 mph 28.8 mph N/A   Mostly Cloudy
10:53 PM 73.0 °F - 60.1 °F 64% 29.78 in 10.0 mi WNW 17.3 mph 24.2 mph N/A   Scattered Clouds
11:53 PM 72.0 °F - 57.0 °F 59% 29.79 in 10.0 mi WNW 19.6 mph 28.8 mph N/A   Mostly Cloudy